FW4485 Weather Reports


time (UTC)temp
C
wind
direction
speed
KPH
gust
KPH
rain 1hr
cm
rain 24hr
cm
rain mn
cm
humidity
%
barometer
mb
20260508110027 3 304 0.0 0.0 0.03 0.46 0.03 94 1017.1
20260508104517 3 304 0.0 0.0 0.03 0.48 0.03 94 1016.8
20260508103020 4 304 0.0 0.0 0.03 0.48 0.03 95 1016.5
20260508101532 4 304 0.0 0.0 0.00 0.46 0.00 94 1016.4
20260508100034 4 304 0.0 1.6 0.00 0.46 0.00 94 1016.3
20260508094527 4 304 0.0 0.0 0.00 0.46 0.00 94 1016.1
20260508093021 4 304 0.0 0.0 0.00 0.46 0.00 93 1015.9
20260508091521 5 304 0.0 0.0 0.00 0.46 0.00 93 1015.9
20260508090030 5 304 0.0 0.0 0.00 0.46 0.00 94 1015.8
20260508084526 5 304 0.0 0.0 0.00 0.46 0.00 93 1015.7
20260508083037 5 303 0.0 0.0 0.00 0.46 0.00 93 1015.6
20260508081520 5 304 0.0 0.0 0.00 0.46 0.00 93 1015.4
20260508080003 5 304 0.0 0.0 0.00 0.46 0.00 93 1015.3
20260508074514 6 304 0.0 0.0 0.00 0.46 0.00 93 1015.1
20260508073013 6 304 0.0 0.0 0.00 0.46 0.00 92 1015.2
20260508071516 6 304 0.0 0.0 0.00 0.46 0.00 92 1015.0
20260508070023 7 304 0.0 1.6 0.00 0.46 0.00 92 1015.0
20260508064516 7 304 0.0 1.6 0.00 0.46 0.00 92 1014.9
20260508063007 6 274 0.0 1.6 0.00 0.46 0.00 92 1015.0
20260508061514 6 274 0.0 1.6 0.00 0.46 0.00 93 1015.1
20260508060019 6 274 0.0 1.6 0.00 0.46 0.00 93 1015.2
20260508054535 6 274 0.0 1.6 0.00 0.46 0.00 93 1015.2
20260508053024 6 274 0.0 1.6 0.00 0.46 0.00 93 1015.1
20260508051522 6 274 0.0 0.0 0.00 0.46 0.00 93 1014.9
20260508050025 7 274 0.0 0.0 0.00 0.46 0.00 92 1014.9
20260508044523 7 274 0.0 1.6 0.00 0.48 0.00 92 1014.8
20260508043036 7 274 0.0 1.6 0.00 0.48 0.00 92 1014.5
20260508041533 7 275 0.0 1.6 0.00 0.48 0.00 93 1014.3
20260508040010 7 274 0.0 1.6 0.00 0.48 0.00 93 1014.3
20260508034523 7 275 0.0 0.0 0.00 0.48 0.48 92 1014.3
20260508033023 7 275 0.0 0.0 0.00 0.48 0.48 92 1014.3
20260508031526 7 274 0.0 0.0 0.00 0.48 0.48 90 1014.2
20260508030031 8 275 0.0 1.6 0.00 0.53 0.48 90 1014.1
20260508024519 8 274 0.0 1.6 0.00 0.58 0.48 89 1013.9
20260508023018 8 274 0.0 0.0 0.00 0.61 0.48 89 1013.8
20260508021521 8 274 0.0 0.0 0.00 0.64 0.48 89 1013.5
20260508020028 9 275 0.0 0.0 0.00 0.64 0.48 89 1013.4
20260508014530 9 274 0.0 1.6 0.00 0.66 0.48 90 1013.0
20260508013015 10 275 0.0 0.0 0.00 0.66 0.48 87 1012.6
20260508011520 10 274 0.0 0.0 0.00 0.66 0.48 88 1012.3
20260508010027 11 274 0.0 1.6 0.00 0.66 0.48 85 1012.2
20260508004536 11 274 0.0 0.0 0.00 0.69 0.48 82 1012.1
20260508003029 13 275 0.0 1.6 0.00 0.71 0.48 81 1012.3
20260508001533 13 274 0.0 4.8 0.00 0.74 0.48 70 1012.1
20260508000020 14 185 0.0 8.0 0.00 0.74 0.48 68 1012.0
20260507234530 15 171 4.8 11.3 0.00 0.74 0.48 67 1012.0
20260507233028 15 337 1.6 6.4 0.00 0.74 0.48 72 1011.7
20260507231534 15 222 1.6 9.7 0.00 0.74 0.48 74 1011.5
20260507230027 15 15 3.2 6.4 0.00 0.74 0.48 76 1011.1
20260507224523 15 281 1.6 9.7 0.00 0.74 0.48 81 1011.2
20260507223025 15 48 0.0 1.6 0.00 0.74 0.48 89 1011.1
20260507221528 15 48 0.0 3.2 0.00 0.74 0.48 86 1010.8
20260507220026 15 329 3.2 6.4 0.00 0.74 0.48 84 1010.6
20260507220014 15 322 3.2 6.4 0.00 0.74 0.48 84 1010.6
20260507214524 16 358 1.6 4.8 0.00 0.74 0.48 82 1010.2
20260507213020 16 359 1.6 3.2 0.00 0.74 0.48 84 1010.1
20260507211504 16 323 1.6 4.8 0.00 0.74 0.48 84 1009.9
20260507210007 16 132 0.0 3.2 0.00 0.74 0.48 88 1009.8
20260507204514 15 110 1.6 9.7 0.00 0.74 0.48 89 1009.8
20260507203020 15 140 4.8 11.3 0.00 0.74 0.48 90 1009.4
20260507201522 14 1 1.6 8.0 0.08 0.74 0.48 92 1009.6
20260507200005 14 53 1.6 8.0 0.33 0.74 0.48 92 1009.9
20260507194510 14 135 0.0 4.8 0.36 0.74 0.48 92 1010.4
20260507193020 14 117 0.0 14.5 0.38 0.74 0.48 92 1010.5
20260507191518 13 23 1.6 6.4 0.30 0.66 0.41 91 1010.0
20260507190024 13 64 1.6 12.9 0.05 0.41 0.15 90 1010.1
20260507184506 14 56 3.2 11.3 0.03 0.38 0.13 91 1010.4
20260507183012 15 43 4.8 12.9 0.00 0.36 0.10 90 1010.0
20260507181517 15 303 1.6 8.0 0.00 0.36 0.10 89 1010.4
20260507180023 15 335 3.2 12.9 0.00 0.36 0.10 90 1010.0
20260507174542 15 63 6.4 14.5 0.00 0.36 0.10 89 1010.1
20260507173011 16 349 1.6 12.9 0.00 0.36 0.10 89 1010.2
20260507171518 16 32 1.6 9.7 0.00 0.38 0.10 89 1010.1
20260507170023 16 50 1.6 12.9 0.00 0.38 0.10 89 1010.4
20260507164525 16 46 1.6 9.7 0.00 0.38 0.10 88 1010.1
20260507163026 17 152 1.6 6.4 0.00 0.38 0.10 87 1009.8
20260507161511 19 44 4.8 11.3 0.00 0.38 0.10 85 1009.6
20260507160015 20 299 0.0 1.6 0.00 0.38 0.10 85 1009.8
20260507154520 20 300 0.0 1.6 0.00 0.38 0.10 85 1010.1
20260507153027 20 139 3.2 8.0 0.00 0.38 0.10 88 1010.0
20260507151527 18 4 3.2 8.0 0.00 0.38 0.10 88 1010.1
20260507150012 17 6 0.0 1.6 0.00 0.38 0.10 90 1010.3
20260507144516 17 189 0.0 1.6 0.00 0.38 0.10 91 1010.5
20260507143020 18 167 0.0 0.0 0.00 0.38 0.10 91 1010.4
20260507141524 17 167 0.0 1.6 0.00 0.38 0.10 92 1010.2
20260507140036 17 150 0.0 0.0 0.00 0.38 0.10 93 1010.1
20260507134529 17 150 0.0 1.6 0.00 0.38 0.10 94 1009.8
20260507133017 17 324 0.0 3.2 0.03 0.38 0.10 94 1009.9
20260507131536 16 30 0.0 1.6 0.03 0.38 0.10 94 1010.1
20260507130027 16 31 0.0 1.6 0.03 0.38 0.10 95 1010.7
20260507124509 16 84 0.0 3.2 0.05 0.38 0.10 95 1010.9
20260507123015 16 285 0.0 1.6 0.03 0.36 0.08 95 1011.1
20260507121521 16 285 0.0 1.6 0.03 0.36 0.08 95 1011.3
20260507120003 16 60 0.0 1.6 0.03 0.36 0.08 95 1011.3
20260507114506 16 60 0.0 1.6 0.03 0.33 0.05 95 1010.7
20260507113021 16 60 0.0 0.0 0.03 0.33 0.05 95 1010.8
20260507111515 16 60 0.0 1.6 0.03 0.33 0.05 95 1010.7